Location: Amherst
(42.5000°N, 72.5000°W)
Time: 17:31:17
(UTC-04:00)

ISS - Pass Details

Date: 17 July 2018
Orbit: 402 x 408 km, 51.6° (Epoch: 16 July)

Event Time Altitude Azimuth Distance (km) Brightness Sun altitude
Exits shadow 23:27:57 11° 51° (NE) 1,398 -0.9 -23.3°
Drops below altitude 10° 23:28:01 11° 52° (NE) 1,423 -0.9 -23.3°
Sets 23:30:13 0° 55° (NE) 2,330 0.2 -23.4°
